Location: Ethel Rock
(53.4667°N, 4.5667°W)
Time: 04:11:46
(UTC+00:00)

CZ-4B R/B - Pass Details

Date: 24 October 2020
Orbit: 389 x 462 km, 97.6° (Epoch: 25 November)

Event Time Altitude Azimuth Distance (km) Brightness Sun altitude
Rises 04:48:25 0° 166° (SSE) 2,488 5.3 -20.5°
Reaches altitude 10° 04:50:27 10° 167° (SSE) 1,617 4.3 -20.2°
Maximum altitude 04:53:56 83° 255° (WSW) 474 1.3 -19.7°
Drops below altitude 10° 04:57:25 10° 344° (NNW) 1,617 4.1 -19.2°
Enters shadow 04:57:31 - 344° (NNW) 1,659 4.2 -19.2°
Exits shadow 04:58:54 - 345° (NNW) 2,249 4.9 -19.0°
Sets 04:59:28 0° 346° (NNW) 2,489 5.1 -18.9°
